Location: Huntsville
(41.2590°N, 111.7678°W)
Time: 11:00:37
(UTC+00:00)

SR - All Passes

Search period start: 13 June 2021 00:00
Search period end: 23 June 2021 00:00
Orbit: 574 x 880 km, 66.7° (Epoch: 13 June)

Date Brightness Start Highest point End Pass type
(mag) Time Alt. Az. Time Alt. Az. Time Alt. Az.
13 Jun - 00:39:10 10° S 00:44:27 35° ESE 00:49:46 10° NE daylight
13 Jun - 02:20:57 10° WSW 02:26:30 41° NW 02:32:02 10° NNE daylight
13 Jun - 09:20:49 10° N 09:25:18 26° NE 09:29:28 10° ESE visible
13 Jun - 11:02:38 10° NW 11:07:38 46° WSW 11:12:11 10° S visible
13 Jun - 23:51:06 10° SSE 23:55:00 18° ESE 23:58:55 10° ENE daylight
14 Jun - 01:30:37 10° SW 01:36:31 72° WNW 01:42:24 10° NNE daylight
14 Jun - 03:16:06 10° WNW 03:19:38 16° NW 03:23:08 10° N daylight
14 Jun - 08:31:45 10° N 08:34:57 16° NE 08:38:00 10° ENE visible
14 Jun - 10:12:38 10° NNW 10:17:57 86° ENE 10:22:45 10° SSE visible
14 Jun - 11:57:57 10° W 11:59:01 11° W 12:00:05 10° WSW daylight
15 Jun - 00:40:54 10° SSW 00:46:43 63° ESE 00:52:33 10° NE daylight
15 Jun - 02:24:24 10° WSW 02:29:16 26° NW 02:34:05 10° N daylight
15 Jun - 09:22:56 10° NNW 09:28:01 44° NE 09:32:40 10° SE visible
15 Jun - 11:05:42 10° NW 11:09:44 24° WSW 11:13:30 10° SSW visible
15 Jun - 23:51:55 10° S 23:57:06 33° ESE 00:02:19 10° NE daylight
16 Jun - 01:33:30 10° SW 01:39:06 43° NW 01:44:41 10° NNE daylight
16 Jun - 03:21:45 10° NW 03:22:45 10° NNW 03:23:46 10° NNW daylight
16 Jun - 08:33:31 10° N 08:37:52 24° NE 08:41:55 10° E visible
16 Jun - 10:15:14 10° NW 10:20:16 49° WSW 10:24:50 10° S visible
16 Jun - 23:03:59 10° SE 23:07:40 17° ESE 23:11:22 10° ENE daylight
17 Jun - 00:43:14 10° SW 00:49:09 77° WNW 00:55:03 10° NNE daylight
17 Jun - 02:28:30 10° WNW 02:32:12 17° NW 02:35:51 10° N daylight
17 Jun - 07:44:32 10° N 07:47:29 15° NE 07:50:20 10° ENE visible
17 Jun - 09:25:16 10° NNW 09:30:34 81° ENE 09:35:20 10° SSE visible
17 Jun - 11:10:03 10° W 11:11:41 12° W 11:13:18 10° WSW visible
17 Jun - 23:53:35 10° SSW 23:59:22 59° ESE 00:05:09 10° NE daylight
18 Jun - 01:36:54 10° WSW 01:41:51 27° NW 01:46:45 10° N daylight
18 Jun - 08:35:36 10° NNW 08:40:37 41° NE 08:45:11 10° ESE visible
18 Jun - 10:18:15 10° NW 10:22:23 25° WSW 10:26:14 10° SSW visible
18 Jun - 23:04:40 10° S 23:09:46 31° ESE 23:14:52 10° NE daylight
19 Jun - 00:46:02 10° SW 00:51:43 45° NW 00:57:19 10° NNE daylight
19 Jun - 02:33:48 10° NW 02:35:17 11° NNW 02:36:46 10° NNW daylight
19 Jun - 07:46:14 10° N 07:50:26 23° NE 07:54:21 10° E visible
19 Jun - 09:27:50 10° NW 09:32:54 53° WSW 09:37:28 10° S visible
19 Jun - 22:16:55 10° SE 22:20:21 16° ESE 22:23:47 10° ENE daylight
19 Jun - 23:55:50 10° SSW 00:01:46 81° WNW 00:07:40 10° NNE daylight
20 Jun - 01:40:55 10° W 01:44:45 17° NW 01:48:33 10° N daylight
20 Jun - 06:57:19 10° N 07:00:02 14° NE 07:02:38 10° ENE visible
20 Jun - 08:37:54 10° NNW 08:43:09 75° ENE 08:47:54 10° SE visible
20 Jun - 10:22:18 10° WNW 10:24:21 12° WSW 10:26:21 10° SW visible
20 Jun - 23:06:16 10° S 23:12:01 55° ESE 23:17:44 10° NE daylight
21 Jun - 00:49:23 10° WSW 00:54:26 28° NW 00:59:25 10° N daylight
21 Jun - 07:48:16 10° NNW 07:53:12 38° NE 07:57:41 10° ESE visible
21 Jun - 09:30:47 10° NW 09:35:02 27° WSW 09:38:58 10° SSW visible
21 Jun - 22:17:27 10° SSE 22:22:26 29° ESE 22:27:25 10° NE daylight
21 Jun - 23:58:36 10° SW 00:04:19 48° NW 00:09:58 10° NNE daylight
22 Jun - 01:46:00 10° NW 01:47:49 11° NW 01:49:39 10° NNW daylight
22 Jun - 06:58:56 10° N 07:02:59 22° NE 07:06:46 10° E visible
22 Jun - 08:40:27 10° NW 08:45:30 57° WSW 08:50:06 10° SSE visible
22 Jun - 21:29:51 10° SE 21:33:01 15° ESE 21:36:11 10° ENE daylight
22 Jun - 23:08:27 10° SSW 23:14:23 86° WNW 23:20:17 10° NNE daylight
